Regional Weather Roundup
Issued by NWS

Home | Current Version | Previous Version | Graphics & Text | Print | Product List | Glossary On
Versions: 1 2 3 4 5 6 7 8 9 10 11 12 13 14 15 16 17 18 19 20 21 22 23 24 25 26 27 28 29 30 31 32 33 34 35 36 37 38 39 40 41 42 43 44 45 46 47 48 49 50
000
ASUS43 KMPX 221810
RWRMN
WEATHER ROUNDUP FOR MINNESOTA
NATIONAL WEATHER SERVICE TWIN CITIES/CHANHASSEN MN
100 PM CDT MON MAY 22 2017


NOTE: "FAIR" INDICATES FEW OR NO CLOUDS BELOW 12,000 FEET WITH NO
SIGNIFICANT WEATHER AND/OR OBSTRUCTIONS TO VISIBILITY. N/A MEANS
CURRENT SKY AND/OR WEATHER CONDITIONS ARE NOT AVAILABLE.

MNZ060>063-068>070-221900-
   Twin Cities Metro

CITY           SKY/WX    TMP DP  RH WIND       PRES   REMARKS
TWIN CITIES    MOSUNNY   63  42  46 W15G23    29.84S
6HR MIN TEMP:  47; 6HR MAX TEMP:  63;

ST PAUL        MOSUNNY   62  43  49 W16G24    29.85S
CRYSTAL        PTSUNNY   63  41  44 NW15      29.83F
BLAINE         MOSUNNY   63  45  51 W13G21    29.84S
LAKEVILLE      MOSUNNY   61  46  59 W9G16     29.84F
EDEN PRAIRIE   MOSUNNY   63  44  50 W12       29.84S
6HR MIN TEMP:  46; 6HR MAX TEMP:  63;

SOUTH ST PAUL  MOSUNNY   62  43  49 W12G17    29.83F
LAKE ELMO      FAIR      61  46  59 NW14G20   29.85S
$$
MNZ001>005-007-008-013>017-022>024-027-028-221900-
   Northwest Minnesota

CITY           SKY/WX    TMP DP  RH WIND       PRES   REMARKS
BEMIDJI        CLOUDY    48  44  84 W10       29.79S
HALLOCK        DRIZZLE   52  45  76 N13       29.84S
ROSEAU         LGT RAIN  50  45  81 N15       29.80R
WARROAD        RAIN      46  45  93 N9        29.80R
THIEF RVR FALL CLOUDY    50  44  80 W12       29.82S
CROOKSTON      CLOUDY    50  45  81 NW15      29.84S
FOSSTON        CLOUDY    48  45  87 W9        29.82S
DETROIT LAKES  PTSUNNY   52  43  71 NW13      29.84S
MOORHEAD       CLOUDY    55  45  67 NW16      29.86R
PARK RAPIDS    LGT RAIN  54  40  59 NW18      29.80S
MAHNOMEN       CLOUDY    49  43  79 NW15      29.83R
$$
MNZ006-009>011-018-025>026-221900-
   North Central Minnesota

CITY           SKY/WX    TMP DP  RH WIND       PRES   REMARKS
BAUDETTE       CLOUDY    48  50 100 NW9       29.77S
FLAG ISLAND    LGT RAIN  46  43  87 NW13      29.77R
INTL FALLS     LGT RAIN  47  43  86 N6        29.75R
6HR MIN TEMP:  44; 6HR MAX TEMP:  50; 6HR PCP:  0.05;

WASKISH        LGT RAIN  48  45  87 NW6       29.78R
BIG FORK       CLOUDY    50  45  81 W5        29.76S
LONGVILLE      CLOUDY    52  45  76 W6        29.79S
GRAND RAPIDS   CLOUDY    49  44  83 W9        29.79S
CRANE LAKE     CLOUDY    48  45  87 W3        29.75S
ORR            CLOUDY    48  43  81 W5        29.72S
COOK           DRIZZLE   48  45  87 W7        29.75S
WALKER         CLOUDY    50  42  73 W5        29.79S
$$
MNZ012-019>021-037-221900-
   Northeast Minnesota

CITY           SKY/WX    TMP DP  RH WIND       PRES   REMARKS
DULUTH         CLOUDY    51  46  83 W12       29.77R
6HR MIN TEMP:  45; 6HR MAX TEMP:  51; 6HR PCP: TRACE;

ELY            CLOUDY    48  45  87 W9        29.73S
HIBBING        CLOUDY    50  43  77 W8        29.75S
EVELETH        CLOUDY    48  41  76 W9        29.77R
DULUTH HARBOR  CLOUDY    54  46  76 W14       29.79R
TWO HARBORS    CLOUDY    54  46  76 W10       29.74R
SILVER BAY     CLOUDY    54  45  71 W8        29.73R
GRAND MARAIS     N/A     43  40  89 W12       29.72S
G MARAIS ARPRT CLOUDY    48  39  71 W7        29.71S
$$
MNZ029>031-032-039>041-046>048-054>057-064-221900-
   West Central Minnesota

CITY           SKY/WX    TMP DP  RH WIND       PRES   REMARKS
FERGUS FALLS   CLOUDY    55  46  71 NW10      29.84S
WHEATON        MOSUNNY   59  43  55 NW10G16   29.89S
MORRIS         MOSUNNY   57  45  62 NW13      29.86F
ALEXANDRIA     CLOUDY    56  41  57 NW12      29.86S
ELBOW LAKE     CLOUDY    55  46  73 NW10G16   29.86S
WADENA         PTSUNNY   54  43  66 W13       29.82S
GLENWOOD       CLOUDY    57  45  62 W15       29.86F
APPLETON       SUNNY     59  41  51 NW9       29.87S
BENSON         CLOUDY    61  41  48 NW10      29.88F
ORTONVILLE     MOSUNNY   57  43  58 N9        29.88S
MADISON        PTSUNNY   63  46  55 N10G16    29.87S
WILLMAR        FAIR      59  46  63 NW14      29.87F
$$
MNZ033>034-036-042>043-049>051-058-059-221900-
   Central Minnesota

CITY           SKY/WX    TMP DP  RH WIND       PRES   REMARKS
ST CLOUD       PTSUNNY   57  43  59 W14       29.84S
6HR MIN TEMP:  44; 6HR MAX TEMP:  58;

SAUK CENTRE    FAIR      55  42  62 W10       29.85F
PAYNESVILLE    PTSUNNY   57  43  60 NW9       29.86F
AITKIN         CLOUDY    54  43  66 W5G16     29.79R
PINE RIVER     PTSUNNY   54  45  71 W5        29.83F
BRAINERD       CLOUDY    54  41  61 W12       29.81S
STAPLES        CLOUDY    55  39  54 W13G20    29.82S
LONG PRAIRIE   PTSUNNY   54  41  62 SW8       29.85S
LITTLE FALLS   CLOUDY    54  39  58 W8        29.84R
LITCHFIELD     SUNNY     61  45  55 W7G16     29.86S
BUFFALO        PTSUNNY   59  43  53 W8        29.86F
MAPLE LAKE     MOSUNNY   59  45  59 W8        29.85F
HUTCHINSON     CLOUDY    61  48  63 NW8       29.86F
$$
MNZ037-044-045-052-053-221900-
   East Central Minnesota

CITY           SKY/WX    TMP DP  RH WIND       PRES   REMARKS
PRINCETON      MOSUNNY   61  45  55 W9G17     29.84S
MORA           CLOUDY    54  41  62 NW6       29.84S
CAMBRIDGE      PTSUNNY   57  43  58 W10G18    29.82S
RUSH CITY      CLOUDY    57  45  64 W8        29.83S
MOOSE LAKE     CLOUDY    52  43  71 W8        29.79S
HINCKLEY       MOCLDY    54  45  71 W9G16     29.82S
CLOQUET        CLOUDY    52  43  71 W12       29.78S
MCGREGOR       CLOUDY    52  43  71 W10       29.80S
$$
MNZ071>073-080-081-089-090-097-098-221900-
   Southwest Minnesota

CITY           SKY/WX    TMP DP  RH WIND       PRES   REMARKS
MONTEVIDEO     MOSUNNY   63  46  55 VRB10     29.87S
CANBY          SUNNY     61  46  57 CALM      29.88F
MARSHALL       SUNNY     60  48  64 VRB5      29.87F
REDWOOD FALLS  SUNNY     63  45  51 VRB6      29.86S
OLIVIA         MOSUNNY   59  46  63 W7        29.86S
PIPESTONE      MOSUNNY   64  45  48 W10G18    29.86S
WINDOM         SUNNY     64  45  48 N5        29.86F
WORTHINGTON    MOSUNNY   63  48  58 VRB3      29.87F
JACKSON        SUNNY     63  43  48 CALM      29.87S
TRACY          SUNNY     62  47  58 CALM      29.87F
SLAYTON        SUNNY     62  46  56 N6        29.87F
$$
MNZ065>067-074>077-082>085-091>093-221900-
   South Central Minnesota

CITY           SKY/WX    TMP DP  RH WIND       PRES   REMARKS
NEW ULM        SUNNY     63  45  51 NW10G16   29.86S
ST JAMES       SUNNY     63  46  55 N10       29.88S
FAIRMONT       SUNNY     64  45  49 VRB5      29.87S
GLENCOE        MOSUNNY   62  50  66 W12G18    29.84F
FARIBAULT      SUNNY     63  46  55 W12       29.86S
OWATONNA       SUNNY     63  45  51 NW8       29.86S
WASECA         SUNNY     63  46  55 NW10      29.87S
ALBERT LEA     SUNNY     64  43  45 CALM      29.86S
$$
MNZ078>079-086>088-094>096-221900-
   Southeast Minnesota

CITY           SKY/WX    TMP DP  RH WIND       PRES   REMARKS
ROCHESTER      SUNNY     64  49  57 SW9       29.87F
6HR MIN TEMP:  44; 6HR MAX TEMP:  64;

RED WING       SUNNY     64  39  39 W13       29.83F
STANTON        SUNNY     63  47  55 NW12G17   29.84S
DODGE CENTER   SUNNY     63  43  48 W8        29.86S
WINONA         SUNNY     66  46  48 NW8       29.85F
AUSTIN         MOSUNNY   63  45  51 CALM      29.86S
PRESTON        SUNNY     63  48  58 NW5       29.88S
$$
ABBREVIATIONS USED IN REMARKS
   TC - TEMPERATURES IN CELSIUS
  WCI - WIND CHILL INDEX
   HX - HEAT INDEX
  VSB - VISIBILITY
$$




USA.gov is the U.S. government's official web portal to all federal, state and local government web resources and services.